Location: Newark
(6.1731°S, 35.7419°E)
Time: 10:48:10
(UTC+00:00)

Tiros 1 - All Passes

Search period start: 19 February 2020 00:00
Search period end: 29 February 2020 00:00
Orbit: 631 x 664 km, 48.4° (Epoch: 18 February)

Date Brightness Start Highest point End Pass type
(mag) Time Alt. Az. Time Alt. Az. Time Alt. Az.
19 Feb - 10:09:54 10° NW 10:14:34 71° SW 10:19:20 10° SSE daylight
19 Feb - 20:38:30 10° SSW 20:43:03 45° SE 20:47:31 10° ENE night (unlit)
19 Feb - 22:22:30 10° W 22:25:01 14° NW 22:27:29 10° NNW night (unlit)
20 Feb - 08:54:31 10° N 08:58:35 29° NE 09:02:42 10° ESE daylight
20 Feb - 10:36:58 10° W 10:40:38 22° SW 10:44:21 10° S daylight
20 Feb - 19:24:35 10° SSE 19:26:49 13° SE 19:29:03 10° ESE night (unlit)
20 Feb - 21:04:24 10° SW 21:09:01 53° NW 21:13:35 10° NNE night (unlit)
21 Feb - 09:19:50 10° NW 09:24:32 81° SW 09:29:17 10° SE daylight
21 Feb - 19:48:31 10° SSW 19:52:59 39° SE 19:57:23 10° ENE night (unlit)
21 Feb - 21:32:02 10° W 21:34:57 16° NW 21:37:52 10° NNW night (unlit)
22 Feb - 08:04:39 10° N 08:08:32 26° NE 08:12:28 10° ESE daylight
22 Feb - 09:46:43 10° WNW 09:50:34 25° SW 09:54:28 10° S daylight
22 Feb - 18:35:03 10° SSE 18:36:44 12° SE 18:38:24 10° ESE visible
22 Feb - 20:14:16 10° SW 20:18:58 60° NW 20:23:36 10° NNE night (unlit)
23 Feb - 08:29:48 10° NW 08:34:28 88° NE 08:39:14 10° SE daylight
23 Feb - 18:58:33 10° SSW 19:02:55 35° SE 19:07:14 10° ENE visible
23 Feb - 20:41:38 10° W 20:44:54 18° NW 20:48:09 10° N night (unlit)
24 Feb - 07:14:49 10° N 07:18:29 23° NE 07:22:12 10° ESE daylight
24 Feb - 08:56:30 10° WNW 09:00:30 28° SW 09:04:34 10° S daylight
24 Feb - 17:45:57 10° SE 17:46:38 10° SE 17:47:20 10° SE visible
24 Feb - 19:24:10 10° SW 19:28:55 69° NW 19:33:36 10° NNE night (unlit)
25 Feb - 07:39:46 10° NW 07:44:25 78° NE 07:49:09 10° SE daylight
25 Feb - 18:08:36 10° SSW 18:12:51 31° SE 18:17:03 10° ENE visible
25 Feb - 19:51:18 10° W 19:54:51 21° NW 19:58:23 10° N night (unlit)
26 Feb - 06:25:01 10° N 06:28:27 20° NE 06:31:54 10° E daylight
26 Feb - 08:06:19 10° WNW 08:10:26 31° SW 08:14:38 10° SSE daylight
26 Feb - 18:34:04 10° SW 18:38:52 79° NW 18:43:35 10° NE visible
27 Feb - 06:49:46 10° NNW 06:54:23 68° NE 06:59:04 10° SE daylight
27 Feb - 08:36:18 10° SW 08:36:39 10° SW 08:37:00 10° SW daylight
27 Feb - 17:18:40 10° S 17:22:47 28° SE 17:26:50 10° ENE visible
27 Feb - 19:01:00 10° WSW 19:04:48 24° NW 19:08:35 10° N visible
28 Feb - 05:35:16 10° N 05:38:24 18° NE 05:41:33 10° E daylight
28 Feb - 07:16:08 10° WNW 07:20:22 35° SW 07:24:41 10° SSE daylight
28 Feb - 17:43:59 10° SW 17:48:48 89° NW 17:53:33 10° NE visible
